Location: Fort Wayne
(41.1310°N, 85.1290°W)
Time: 07:26:17
(UTC-04:00)

Cosmos 2056 Rocket - Visible Passes

Search period start: 31 October 2014 00:00
Search period end: 09 November 2014 23:00
Orbit: 742 x 803 km, 74.0° (Epoch: 30 October)

Date Brightness Start Highest point End Pass type
(mag) Time Alt. Az. Time Alt. Az. Time Alt. Az.
31 Oct 5.8 05:57:18 10° N 06:01:31 23° ENE 06:05:44 10° ESE visible
31 Oct 3.8 07:38:45 10° NNW 07:43:58 50° WSW 07:49:11 10° S visible
31 Oct 3.8 20:34:35 10° S 20:38:42 48° SE 20:38:42 48° SE visible
31 Oct 6.2 22:18:21 10° WSW 22:19:11 13° W 22:19:11 13° W visible
01 Nov 6.3 05:22:32 10° NNE 05:25:31 15° NE 05:28:29 10° E visible
01 Nov 3.5 07:02:56 10° NNW 07:08:23 83° WSW 07:13:48 10° SSE visible
01 Nov 4.1 19:59:33 10° SSE 20:04:07 32° E 20:05:15 29° ENE visible
01 Nov 5.2 21:41:37 10° SW 21:45:43 31° WNW 21:45:43 31° WNW visible
02 Nov 4.1 05:27:19 10° NNW 05:32:42 61° ENE 05:38:03 10° SSE visible
02 Nov 4.8 18:25:04 10° SE 18:28:42 19° E 18:31:41 13° ENE visible
02 Nov 4.3 20:05:21 10° SW 20:10:24 50° WNW 20:12:08 36° NNW visible
03 Nov 4.9 04:51:53 10° N 04:56:56 38° ENE 05:01:56 10° SE visible
03 Nov 4.5 06:34:21 10° NW 06:38:54 28° W 06:43:25 10° SSW visible
03 Nov 3.5 19:29:28 10° SSW 19:34:40 83° WNW 19:38:23 20° NNE visible
03 Nov 6.4 21:15:47 10° WNW 21:17:44 12° NW 21:18:49 11° NW visible
04 Nov 5.6 04:16:50 11° N 04:21:02 24° ENE 04:25:24 10° ESE visible
04 Nov 3.8 05:58:15 10° NNW 06:03:25 46° WSW 06:08:33 10° S visible
04 Nov 3.5 18:53:57 10° S 18:59:03 60° ESE 19:04:17 10° NNE visible
04 Nov 5.9 20:38:01 10° W 20:41:40 19° NW 20:44:50 12° NNW visible
05 Nov 6.2 03:43:16 14° NNE 03:45:02 16° NE 03:48:17 10° E visible
05 Nov 3.4 05:23:44 18° NNW 05:27:51 77° WSW 05:33:14 10° SSE visible
05 Nov 4.1 18:18:49 10° SSE 18:23:31 35° E 18:28:19 10° NE visible
05 Nov 5.3 20:01:11 10° WSW 20:05:42 29° WNW 20:10:20 10° N visible
06 Nov 3.8 04:50:17 40° N 04:52:11 66° ENE 04:57:33 10° SSE visible
06 Nov 5.1 06:30:46 10° WNW 06:33:42 15° W 06:36:44 10° SW visible
06 Nov 4.5 19:24:50 10° SW 19:29:51 46° WNW 19:35:00 10° N visible
07 Nov 4.8 04:16:55 40° E 04:16:55 40° E 04:21:30 10° SE visible
07 Nov 4.5 05:57:24 24° W 05:58:19 26° W 06:02:41 10° SSW visible
07 Nov 3.7 18:48:53 10° SSW 18:54:07 76° WNW 18:59:29 10° NNE visible
07 Nov 6.4 20:35:46 10° WNW 20:37:16 11° NW 20:38:46 10° NNW visible
08 Nov 6.0 03:43:33 17° ESE 03:43:33 17° ESE 03:45:02 10° ESE visible
08 Nov 4.2 05:24:02 37° SW 05:24:02 37° SW 05:27:53 10° S visible
08 Nov 3.5 18:13:18 10° S 18:18:28 66° ESE 18:23:46 10° NNE visible
08 Nov 6.1 19:57:41 10° W 20:01:10 18° NW 20:04:41 10° NNW visible
09 Nov 5.1 04:50:37 24° S 04:50:37 24° S 04:52:38 10° S visible
09 Nov 5.5 19:20:45 10° WSW 19:25:11 27° WNW 19:29:42 10° N visible
